Regional Weather Roundup
Issued by NWS

Home | Current Version | Previous Version | Graphics & Text | Print | Product List | Glossary On
Versions: 1 2 3 4 5 6 7 8 9 10 11 12 13 14 15 16 17 18 19 20 21 22 23 24 25 26 27 28 29 30 31 32 33 34 35 36 37 38 39 40 41 42 43 44 45 46 47 48 49 50
000
ASUS43 KLOT 191303
RWRIL

ILLINOIS REGIONAL WEATHER ROUNDUP
NATIONAL WEATHER SERVICE CHICAGO/ROMEOVILLE IL
700 AM CST FRI JAN 19 2018

NOTE: "FAIR" INDICATES FEW OR NO CLOUDS BELOW 12,000 FEET WITH NO
SIGNIFICANT WEATHER AND/OR OBSTRUCTIONS TO VISIBILITY.

* THESE STATIONS ARE NOT UNDER NWS QUALITY CONTROL. THEY ALSO MAY NOT
  REPORT WEATHER SUCH AS PRECIPITATION OR FOG.

ILZ001-002-007-009-015-016-024-191400-
NORTHWEST ILLINOIS

CITY           SKY/WX    TMP DP  RH WIND       PRES   REMARKS
MOLINE         FAIR      30  20  66 SW10      29.88F WCI  21
STERLING*      FAIR      27  21  78 SW5       29.91S WCI  22
SAVANNA*       FAIR      22  18  84 S9        29.88S WCI  11
$$

ILZ003-004-008-010-011-017-018-191400-
NORTH CENTRAL ILLINOIS

CITY           SKY/WX    TMP DP  RH WIND       PRES   REMARKS
ROCKFORD       FAIR      27  19  72 S8        29.89S WCI  19
FREEPORT*      FAIR      26  19  76 SW14      29.87S WCI  14
ROCHELLE*      FAIR      24  19  82 SW8       29.89F WCI  15
DE KALB*       FAIR      24  19  80 SW10      29.89S WCI  14
PERU*          FAIR      29  19  66 SW16      29.92F WCI  17
$$

ILZ005-006-012>014-019>023-191400-
NORTHEAST ILLINOIS

CITY           SKY/WX    TMP DP  RH WIND       PRES   REMARKS
CHICAGO-OHARE  FAIR      29  19  66 SW16      29.89S WCI  17
CHICAGO-MIDWAY FAIR      30  19  63 SW14      29.92R WCI  19
AURORA         FAIR      25  18  74 S13       29.90F WCI  14
LANSING*       FAIR      23  19  83 SW8       29.95R WCI  14
JOLIET*        FAIR      29  19  67 SW9       29.94S WCI  20
WAUKEGAN       FAIR      27  19  72 SW12      29.86S WCI  17
DUPAGE AIRPORT FAIR      27  19  72 SW14      29.89S WCI  16
KANKAKEE*      FAIR     N/A N/A N/A SW15G22   29.99S
WHEELING       FAIR      29  20  69 SW10      29.90S WCI  20
MORRIS*        FAIR      27  19  69 SW15      29.92F WCI  16
ROMEOVILLE*    FAIR      27  19  73 SW13      29.93R WCI  16
NORTHERLY ISL    N/A     30  19  63 S7          N/A  WCI  23
$$

LMZ740>746-191400-
SOUTHERN LAKE MICHIGAN

STATION/POSITION SKY/WX   TEMP    WIND        PRES    VSBY  WAVE
                          AIR SEA DIR/SP/G                  HT/PER
                          (F)     (DEG/KT/KT) (MB)    (MI)  (FT/S)
HARRISON CRIB              32     200/ 19/ 24   N/A
BURNHAM HARBOR             30     230/  7/ 11   N/A
CALUMET HARBOR             27     200/ 11/ 14 1012.9R
BURNS HARBOR               27     190/ 16/ 21 1014.6S
MICHIGAN CITY              28     180/ 15/ 22   N/A
$$

ILZ025>027-034>036-040-047-049-050-058-095>099-191400-
WEST-CENTRAL ILLINOIS

CITY           SKY/WX    TMP DP  RH WIND       PRES   REMARKS
QUINCY         CLOUDY    30  16  56 SW15      29.97F WCI  19
GALESBURG*     FAIR      29  21  72 S12       29.93F WCI  19
MACOMB*        CLOUDY    31  19  62 SW17      29.96F WCI  19
JACKSONVILLE*  CLOUDY    29  14  52 S10       30.02R WCI  20
PITTSFIELD*    CLOUDY    33  17  51 SW8       30.02S WCI  25
$$

ILZ028>032-037-038-041>044-048-051>054-059>061-191400-
CENTRAL ILLINOIS

CITY           SKY/WX    TMP DP  RH WIND       PRES   REMARKS
PONTIAC        FAIR      27  19  71 S14       29.97F WCI  16
BLOOMINGTON    FAIR      25  17  72 SW15      29.99S WCI  13
DECATUR        FAIR      25  18  74 SW16      30.04F WCI  12
PEORIA         FAIR      26  17  68 S10       29.97F WCI  16
LACON*         FAIR      29  19  64 SW13G18   29.93F WCI  19
LINCOLN*       FAIR      25  18  75 S3        30.02S
SPRINGFIELD    FAIR      28  16  60 S14       30.02F WCI  17
TAYLORVILLE    FAIR      23  17  76 S12       30.05F WCI  12
$$

ILZ033-039-045-046-055>057-062-063-191400-
EAST-CENTRAL ILLINOIS

CITY           SKY/WX    TMP DP  RH WIND       PRES   REMARKS
CHAMPAIGN      FAIR      21  15  78 S13       30.04F WCI   9
DANVILLE*      FAIR      22  15  74 S13       30.02F WCI  10
RANTOUL*       FAIR      25  18  76 SW13      30.02F WCI  13
MATTOON        FAIR      22  15  75 S13       30.06F WCI  10
PARIS*         FAIR      22  16  76 S14       30.09F WCI   9
$$

ILZ079-100>102-191400-
SOUTHWEST ILLINOIS

CITY           SKY/WX    TMP DP  RH WIND       PRES   REMARKS
ALTON          PTCLDY    27  16  63 S13       30.09F WCI  16
BELLEVILLE     FAIR      23  15  69 SW9       30.11S WCI  13
CAHOKIA*       FAIR      26  13  57 S7        30.10S WCI  18
SPARTA*        FAIR      24  18  78 S8        30.16S WCI  15
$$

ILZ064>066-069>071-074>076-080>082-084>086-088>090-092>094-191400-
SOUTH-CENTRAL ILLINOIS

CITY           SKY/WX    TMP DP  RH WIND       PRES   REMARKS
CARBONDALE     FAIR      23  17  78 S10       30.19S WCI  12
CAIRO*         FAIR      18  15  88 CALM      30.25R
EFFINGHAM*     FAIR      26  17  70 S8        30.13S WCI  17
MARION         CLEAR     21  16  79 S9        30.20S WCI  11
MT. VERNON     FAIR      21  16  81 S9        30.17S WCI  11
CENTRALIA*     FAIR      25  18  76 S8        30.13S WCI  16
SALEM*         FAIR      26  16  67 S7        30.13F WCI  18
$$

ILZ067-068-072-073-078-083-087-091-191400-
SOUTHEAST ILLINOIS

CITY           SKY/WX    TMP DP  RH WIND       PRES   REMARKS
LAWRENCEVILLE  FAIR      16  11  80 S9        30.17F WCI   4
FLORA*         FAIR      24  17  74 S12       30.15F WCI  13
FAIRFIELD*     FAIR      19  14  79 S7        30.17S WCI  10
HARRISBURG*    FAIR      22  17  78 SW7       30.22S WCI  14
ROBINSON*      FAIR      21  13  72 S9        30.15F WCI  10
CARMI*         FAIR      17  13  84 S6        30.20S WCI   8
$$

ABBREVIATIONS USED IN REMARKS
   TC - TEMPERATURE IN CELSIUS
  WCI - WIND CHILL INDEX
   HX - HEAT INDEX
  VSB - VISIBILITY
$$





USA.gov is the U.S. government's official web portal to all federal, state and local government web resources and services.